[[{"header":{"parameterUnit":"m.s-1","parameterCategory":1,"la1":30.2991,"la2":30.254,"lo1":-89.0895,"lo2":-89.0444,"dy":0.0017,"dx":0.0017,"nx":28,"ny":28,"refTime":"2024-10-03T03:00:00:Z","depth":0,"parameterNumber":2,"parameterNumberName":"U-component_of_WINDS"},"data":[0,0,0,0,0,0,0,0,0,0,0,0,0,0,0,0,0,0,0,0,0,0,0,0,0,0,0,0,0,0,0,0,0,0,0,0,0,0,0,0,0,0,0,0,0,0,0,0,0,0,0,0,0,0,0,0,0,0,-4.6578,-4.6579,0,-4.6614,-4.6615,-4.6615,-4.6513,-4.651,-4.6507,-4.6504,-4.654,-4.6544,-4.6547,0,0,0,0,0,0,0,0,0,0,0,0,0,-4.6422,-4.6425,-4.6578,-4.6579,-4.6579,-4.6614,-4.6615,-4.6615,-4.6514,-4.651,-4.6506,-4.6502,-4.6539,-4.6543,-4.6548,0,0,0,0,0,0,0,0,0,0,0,0,0,-4.6477,-4.6427,-4.6578,-4.6533,-4.6529,-4.6614,-4.6615,-4.6615,-4.6514,-4.651,-4.6505,-4.6501,-4.6537,-4.6543,-4.6548,-4.6679,0,0,-4.6566,-4.6569,0,0,0,0,0,0,0,0,-4.6474,-4.6483,-4.6539,-4.6536,-4.6532,-4.6554,-4.6573,-4.6637,-4.6516,-4.652,-4.6504,-4.6498,-4.6548,-4.6553,-4.657,-4.668,-4.6682,-4.6567,-4.657,-4.6573,-4.6574,0,0,0,0,0,0,0,-4.647,-4.6481,-4.6592,-4.654,-4.6536,-4.6511,-4.6513,-4.6584,-4.656,-4.6519,-4.6512,-4.6518,-4.6546,-4.6565,-4.657,-4.6682,-4.6567,-4.6572,-4.6575,-4.6578,-4.6901,-4.6906,0,0,0,0,0,0,-4.6473,-4.6478,-4.6591,-4.6594,-4.6491,-4.6517,-4.652,-4.6552,-4.6559,-4.6556,-4.6522,-4.6513,-4.6557,-4.6563,-4.6571,-4.6722,-4.6573,-4.6578,-4.6582,-4.6896,-4.6902,-4.6907,0,0,0,0,0,0,-4.647,-4.6484,-4.659,-4.6534,-4.6546,-4.6525,-4.6562,-4.6555,-4.6574,-4.6561,-4.6556,-4.6545,-4.6554,-4.6563,-4.6652,-4.6722,-4.6581,-4.6586,-4.689,-4.6898,-4.6905,-4.7026,0,0,0,0,0,0,-4.6466,-4.6483,-4.6532,-4.6536,-4.6549,-4.6671,-4.6566,-4.6559,-4.6584,-4.6573,-4.6582,-4.6579,-4.6551,-4.6644,-4.6658,-4.6727,-4.6591,-4.6883,-4.6893,-4.6902,-4.7016,-4.7037,-4.7055,0,0,0,0,0,-4.646,-4.6565,-4.6535,-4.6549,-4.661,-4.6675,-4.6682,-4.6648,-4.6591,-4.6639,-4.6631,-4.6579,-4.6713,-4.6654,-4.6669,-4.6741,-4.6879,-4.689,-4.6901,-4.7007,-4.7033,-4.7055,0,0,0,0,0,0,-4.6569,-4.6565,-4.6531,-4.6641,-4.6659,-4.6658,-4.6718,-4.6677,-4.6712,-4.6699,-4.6655,-4.6658,-4.6756,-4.6758,-4.6693,-4.6867,-4.6786,-4.6801,-4.6861,-4.6886,-4.6905,-4.69,-4.6596,0,0,0,0,0,-4.6606,-4.666,-4.6653,-4.675,-4.6761,-4.6739,-4.6766,-4.6738,-4.6755,-4.6762,-4.676,-4.6779,-4.6825,-4.6856,-4.6898,-4.7018,-4.7017,-4.7075,-4.7094,-4.7111,-4.7122,-4.7184,-4.7209,-4.6945,-4.6945,-4.6945,0,0,-4.6682,-4.6687,-4.6723,-4.6772,-4.6783,-4.6838,-4.6746,-4.6809,-4.6849,-4.6772,-4.6855,-4.6856,-4.6873,-4.6978,-4.7024,-4.6983,-4.7196,-4.7125,-4.7138,-4.7141,-4.7198,-4.7223,-4.7245,-4.6953,-4.6951,-4.695,0,0,-4.6848,-4.6859,-4.6939,-4.6953,-4.6971,-4.6956,-4.6976,-4.6981,-4.6978,-4.7062,-4.7005,-4.7053,-4.7135,-4.7149,-4.7167,-4.7343,-4.7294,-4.7358,-4.7459,-4.7519,-4.754,-4.7558,-4.7618,-4.764,-4.7371,-4.7371,-4.7372,0,-4.694,-4.7021,-4.6986,-4.7053,-4.7075,-4.701,-4.7091,-4.7106,-4.7137,-4.7154,-4.7109,-4.7209,-4.7217,-4.7323,-4.7366,-4.7384,-4.7404,-4.7354,-4.754,-4.7558,-4.7574,-4.7631,-4.7653,-4.7379,-4.7378,-4.7377,-4.7376,0,-4.7132,-4.719,-4.7254,-4.7285,-4.7316,-4.739,-4.7365,-4.7401,-4.7372,-4.7362,-4.7448,-4.7456,-4.7497,-4.7522,-4.7494,-4.7624,-4.7598,-4.7548,-4.7464,-4.7607,-4.7659,-4.7681,-4.7389,-4.7386,-4.7384,-4.7382,0,0,-4.7363,-4.7376,-4.74,-4.7413,-4.743,-4.7473,-4.7546,-4.7587,-4.7617,-4.7643,-4.77,-4.7771,-4.7725,-4.7746,-4.772,-4.7774,-4.7909,-4.7716,-4.7716,-4.7748,-4.8051,-4.8085,-4.8111,-4.788,-4.7884,-4.7887,-4.8048,0,-4.7524,-4.7645,-4.7616,-4.7737,-4.7789,-4.7729,-4.7791,-4.7808,-4.7802,-4.7845,-4.7838,-4.7888,-4.7825,-4.7837,-4.7888,-4.7882,-4.7968,-4.787,-4.793,-4.7933,-4.7923,-4.8138,-4.8175,-4.8326,-4.8068,-4.8072,-4.8074,0,-4.7726,-4.7759,-4.7885,-4.7893,-4.7914,-4.797,-4.8005,-4.8049,-4.8068,-4.8059,-4.8084,-4.8048,-4.8118,-4.8039,-4.8134,-4.8069,-4.8093,-4.8094,-4.8099,-4.8099,-4.8009,-4.8141,-4.8374,-4.8395,-4.8106,-4.8104,-4.8102,0,-4.7878,-4.7954,-4.8038,-4.8052,-4.8065,-4.8106,-4.8113,-4.8127,-4.8154,-4.8186,-4.8203,-4.8244,-4.8265,-4.8297,-4.8273,-4.8217,-4.8372,-4.829,-4.8365,-4.8366,-4.8396,-4.8393,-4.8632,-4.8419,-4.8419,-4.8419,-4.8418,0,-4.8057,-4.8136,-4.8106,-4.8158,-4.8244,-4.8211,-4.8297,-4.8298,-4.8311,-4.8362,-4.8314,-4.8363,-4.833,-4.8375,-4.8358,-4.8438,-4.845,-4.8444,-4.8437,-4.8445,-4.8445,-4.8456,-4.8444,-4.8425,-4.8423,-4.8422,-4.8421,0,-4.8238,-4.8222,-4.831,-4.8316,-4.8319,-4.8382,-4.8387,-4.8435,-4.8426,-4.8491,-4.8504,-4.8491,-4.8542,-4.8523,-4.8578,-4.8566,-4.8668,-4.865,-4.8661,-4.8655,-4.8729,-4.8721,-4.8979,-4.901,-4.8782,-4.8784,-4.8786,0,-4.8352,-4.841,-4.8423,-4.8454,-4.8464,-4.8514,-4.8542,-4.8513,-4.8544,-4.8571,-4.8615,-4.8663,-4.8698,-4.8784,-4.8779,-4.8821,-4.8801,-4.8889,-4.8807,-4.8813,-4.8798,-4.8793,-4.8797,-4.8904,-4.8906,-4.8909,-4.891,0,-4.8554,-4.8543,-4.8584,-4.8624,-4.8658,-4.8688,-4.8713,-4.8741,-4.8714,-4.8751,-4.8803,-4.8831,-4.8888,-4.8935,-4.8973,-4.898,-4.8941,-4.8937,-4.8956,-4.8962,-4.8965,-4.8961,-4.8701,-4.893,-4.8928,-4.8927,-4.8926,-4.8925,-4.8702,-4.875,-4.8767,-4.8815,-4.8831,-4.8856,-4.8901,-4.8899,-4.8942,-4.8985,-4.8967,-4.9027,-4.9046,-4.9092,-4.9106,-4.9152,-4.9118,-4.9146,-4.9152,-4.9159,-4.9166,-4.8962,-4.916,-4.9159,-4.9159,-4.9158,-4.9158,0,-4.8898,-4.8906,-4.8951,-4.8988,-4.9025,-4.8987,-4.9014,-4.9047,-4.9101,-4.9122,-4.9159,-4.9219,-4.9265,-4.9265,-4.9308,-4.9345,-4.9328,-4.9357,-4.9352,-4.9354,-4.9196,-4.9174,-4.937,-4.937,-4.937,-4.937,-4.937,-4.937,-4.9004,-4.9084,-4.9076,-4.9164,-4.9172,-4.923,-4.9248,-4.9271,-4.9287,-4.9356,-4.9395,-4.9395,-4.9407,-4.9451,-4.9492,-4.9491,-4.9507,-4.9543,-4.9535,-4.9386,-4.9365,-4.9345,-4.9323,-4.9548,-4.9548,-4.9687,-4.9689,-4.969]},{"header":{"parameterUnit":"m.s-1","parameterCategory":1,"la1":30.2991,"la2":30.254,"lo1":-89.0895,"lo2":-89.0444,"dy":0.0017,"dx":0.0017,"nx":28,"ny":28,"refTime":"2024-10-03T03:00:00:Z","depth":0,"parameterNumber":3,"parameterNumberName":"V-component_of_WINDS"},"data":[0,0,0,0,0,0,0,0,0,0,0,0,0,0,0,0,0,0,0,0,0,0,0,0,0,0,0,0,0,0,0,0,0,0,0,0,0,0,0,0,0,0,0,0,0,0,0,0,0,0,0,0,0,0,0,0,0,0,1.4066,1.4068,0,1.4192,1.4193,1.4195,1.4203,1.4201,1.42,1.4199,1.4327,1.4331,1.4336,0,0,0,0,0,0,0,0,0,0,0,0,0,1.3835,1.3839,1.4066,1.4068,1.4069,1.4192,1.4193,1.4195,1.4203,1.4201,1.42,1.4198,1.4325,1.4331,1.4336,0,0,0,0,0,0,0,0,0,0,0,0,0,1.3945,1.3841,1.4066,1.4088,1.4091,1.4191,1.4193,1.4195,1.4203,1.4201,1.4199,1.4197,1.4323,1.433,1.4337,1.4423,0,0,1.4359,1.4362,0,0,0,0,0,0,0,0,1.3939,1.3954,1.4083,1.4087,1.4091,1.418,1.4159,1.4272,1.4204,1.4161,1.4199,1.4196,1.4279,1.429,1.4318,1.4429,1.4435,1.4359,1.4364,1.4367,1.4369,0,0,0,0,0,0,0,1.3931,1.3949,1.4116,1.4085,1.409,1.4092,1.4106,1.418,1.423,1.4164,1.4165,1.418,1.4281,1.4311,1.4321,1.4437,1.4359,1.4366,1.437,1.4373,1.4628,1.4631,0,0,0,0,0,0,1.3919,1.3942,1.4112,1.412,1.4008,1.4098,1.4113,1.4153,1.423,1.4239,1.4182,1.418,1.43,1.4313,1.4326,1.4434,1.4367,1.4373,1.4377,1.4626,1.4629,1.4632,0,0,0,0,0,0,1.3914,1.3935,1.4107,1.4031,1.4053,1.4104,1.4149,1.4157,1.4187,1.4243,1.4252,1.4204,1.4299,1.4316,1.44,1.4439,1.4377,1.4383,1.4623,1.4627,1.463,1.465,0,0,0,0,0,0,1.3908,1.3933,1.3966,1.4032,1.4057,1.4179,1.4152,1.4161,1.4199,1.4198,1.4266,1.4275,1.4299,1.4389,1.4407,1.4447,1.4389,1.4619,1.4624,1.4629,1.4646,1.4654,1.4661,0,0,0,0,0,1.39,1.3966,1.3967,1.3988,1.41,1.4181,1.4195,1.4222,1.4202,1.4236,1.4273,1.4273,1.4431,1.4398,1.4418,1.4461,1.4617,1.4623,1.4629,1.4643,1.4653,1.4661,0,0,0,0,0,0,1.3902,1.3975,1.3977,1.4067,1.4118,1.4182,1.4226,1.4231,1.4288,1.4285,1.4315,1.433,1.4414,1.4445,1.4407,1.455,1.4522,1.4532,1.4526,1.4536,1.4543,1.4535,1.4394,0,0,0,0,0,1.3913,1.3972,1.4033,1.4106,1.4131,1.4174,1.421,1.4226,1.428,1.4302,1.4344,1.4397,1.4459,1.4499,1.4558,1.4651,1.4667,1.469,1.4698,1.4703,1.4712,1.4766,1.4778,1.465,1.465,1.465,0,0,1.3936,1.3983,1.4019,1.4108,1.4149,1.4211,1.4192,1.4258,1.4305,1.4312,1.4395,1.4427,1.4488,1.4577,1.4619,1.4606,1.4751,1.4711,1.4715,1.4721,1.4773,1.4785,1.4796,1.4654,1.4653,1.4653,0,0,1.4011,1.4051,1.4118,1.416,1.4224,1.4252,1.4268,1.4332,1.4355,1.4438,1.4446,1.4502,1.4607,1.4651,1.4687,1.478,1.4783,1.4798,1.4838,1.489,1.49,1.4909,1.4945,1.4957,1.4807,1.4807,1.4807,0,1.4032,1.4125,1.4152,1.4219,1.4258,1.4268,1.4337,1.4376,1.4456,1.4483,1.4468,1.4603,1.4644,1.4745,1.4768,1.4796,1.4817,1.4792,1.4896,1.4906,1.4915,1.4949,1.4962,1.4808,1.4808,1.4808,1.4808,0,1.415,1.4214,1.4261,1.4339,1.4383,1.445,1.4488,1.453,1.4542,1.4573,1.4659,1.4709,1.478,1.4805,1.4817,1.4909,1.49,1.489,1.4863,1.4928,1.4961,1.4975,1.4811,1.481,1.481,1.4809,0,0,1.423,1.4322,1.4339,1.4376,1.4447,1.4498,1.4566,1.4636,1.4673,1.4727,1.4787,1.4877,1.4869,1.491,1.4927,1.4973,1.5047,1.4958,1.496,1.4975,1.5154,1.5163,1.5178,1.5049,1.5051,1.5053,1.515,0,1.4315,1.4437,1.4463,1.4569,1.4631,1.4642,1.4702,1.4752,1.4782,1.4839,1.4872,1.4937,1.492,1.4946,1.4991,1.5028,1.5084,1.5021,1.5106,1.5109,1.5093,1.5195,1.5204,1.5293,1.5163,1.5165,1.5167,0,1.443,1.4489,1.4601,1.4666,1.4693,1.4746,1.4815,1.4868,1.4926,1.4945,1.4992,1.5005,1.5078,1.5046,1.5148,1.5105,1.5141,1.5164,1.5169,1.5179,1.5143,1.5211,1.5321,1.5336,1.5187,1.5185,1.5184,0,1.4481,1.4588,1.467,1.47,1.4777,1.4815,1.4849,1.4905,1.4946,1.5005,1.5033,1.5099,1.5137,1.5188,1.5219,1.5193,1.532,1.529,1.5339,1.5339,1.5367,1.5365,1.5488,1.5386,1.5386,1.5385,1.5385,0,1.4575,1.4644,1.4694,1.4745,1.4823,1.4852,1.4929,1.4963,1.5013,1.5071,1.5083,1.5137,1.5174,1.5234,1.5258,1.5341,1.5356,1.5375,1.5381,1.5375,1.5373,1.5401,1.5397,1.5389,1.5388,1.5388,1.5387,0,1.4646,1.4682,1.4772,1.4838,1.4857,1.4912,1.4968,1.5019,1.5049,1.5122,1.5141,1.5189,1.5261,1.5296,1.5384,1.5401,1.5495,1.5495,1.5476,1.5479,1.5527,1.5523,1.5673,1.5696,1.5577,1.5578,1.5579,0,1.4705,1.4758,1.483,1.4871,1.4906,1.4969,1.5012,1.5043,1.5088,1.5159,1.5201,1.5273,1.5332,1.5446,1.5489,1.5557,1.5561,1.5609,1.5572,1.5565,1.5566,1.5563,1.557,1.5617,1.5618,1.5619,1.5619,0,1.4806,1.4822,1.4883,1.4951,1.5002,1.5057,1.5111,1.5143,1.5183,1.5232,1.5306,1.5352,1.5443,1.5515,1.5586,1.5622,1.5629,1.5631,1.5646,1.5642,1.563,1.564,1.5497,1.5628,1.5627,1.5626,1.5626,1.5625,1.4875,1.4925,1.4984,1.5052,1.5096,1.5147,1.5198,1.5235,1.5297,1.5374,1.5388,1.5466,1.5525,1.5622,1.566,1.5722,1.5712,1.5733,1.574,1.5745,1.5749,1.5618,1.5735,1.5735,1.5734,1.5734,1.5734,0,1.498,1.5019,1.5081,1.5157,1.5212,1.5212,1.5272,1.5318,1.5387,1.5441,1.5499,1.5585,1.5655,1.5704,1.5775,1.5816,1.5821,1.5834,1.5833,1.5842,1.5753,1.5734,1.5829,1.5829,1.5829,1.5829,1.5829,1.5829,1.5042,1.5126,1.5148,1.5255,1.5293,1.5371,1.5405,1.5453,1.5496,1.5591,1.565,1.5681,1.5734,1.5809,1.5874,1.5887,1.5914,1.5928,1.5941,1.5857,1.5848,1.5838,1.582,1.5933,1.5933,1.6025,1.6026,1.6026]}]]